Weather History for Edinburgh Airport, United Kingdom

Change the Weather History Date:

Tuesday, September 17, 2013

  Actual Average Record
Temperature  
Mean Temperature 48 °F -  
Max Temperature 55 °F 58 °F 71 °F (2003)
Min Temperature 41 °F 45 °F 37 °F (2001)
Degree Days  
Heating Degree Days 16    
Moisture  
Dew Point 43 °F    
Average Humidity 78    
Maximum Humidity 93    
Minimum Humidity 63    
Precipitation  
Precipitation 0.00 in 0.09 in - ()
Sea Level Pressure  
Sea Level Pressure 29.31 in    
Wind  
Wind Speed 14 mph ()    
Max Wind Speed 18 mph    
Max Gust Speed 31 mph    
Visibility 6.2 miles    
Events      
Averages and records for this station are not official NWS values.
T = Trace of Precipitation, MM = Missing Value Source: Averaged Metar Reports

Daily Weather History Graph

Daily Weather History Graph

Search for Another Location

Airport:

Trip Planner

Search our weather history database for the weather conditions in past years. The results will help you decide how hot, cold, wet, or windy it might be!

Date:

Astronomy

Sep. 17, 2013 Rise Set
Actual Time 6:49 AM BST 7:25 PM BST
Civil Twilight 6:11 AM BST 8:02 PM BST
Nautical Twilight 5:26 AM BST 8:47 PM BST
Astronomical Twilight 4:37 AM BST 9:35 PM BST
Moon 6:14 PM BST (9/17) 4:09 AM BST (9/17)
Length of Visible Light 13h 51m
Length of Day
12h 36m
Waxing Gibbous, 95% of the Moon is Illuminated
Sep 17
Waxing Gibbous
Sep 19
Full
Sep 27
Last Quarter
Oct 5
New
Oct 12
First Quarter

Hourly Weather History & Observations

Time (BST) Temp. Windchill Dew Point Humidity Pressure Visibility Wind Dir Wind Speed Gust Speed Precip Events Conditions
12:20 AM 48.2 °F - 42.8 °F 82% 29.30 in 6.2 mi WSW 18.4 mph - N/A   Mostly Cloudy
12:50 AM 48.2 °F - 42.8 °F 82% 29.30 in 6.2 mi WSW 18.4 mph - N/A   Mostly Cloudy
1:20 AM 48.2 °F - 42.8 °F 82% 29.30 in 6.2 mi WSW 18.4 mph 31.1 mph N/A   Scattered Clouds
1:50 AM 48.2 °F - 41.0 °F 76% 29.30 in - WSW 16.1 mph - N/A   Clear
2:20 AM 48.2 °F - 41.0 °F 76% 29.30 in - WSW 17.3 mph - N/A   Clear
2:50 AM 46.4 °F 40.1 °F 41.0 °F 81% 29.30 in - WSW 15.0 mph - N/A   Clear
3:20 AM 46.4 °F 39.8 °F 41.0 °F 81% 29.30 in 6.2 mi WSW 16.1 mph - N/A   Partly Cloudy
3:50 AM 46.4 °F 39.8 °F 41.0 °F 81% 29.30 in 6.2 mi WSW 16.1 mph - N/A   Partly Cloudy
4:20 AM 46.4 °F 39.8 °F 41.0 °F 81% 29.27 in - WSW 16.1 mph - N/A   Clear
4:50 AM 46.4 °F 39.8 °F 41.0 °F 81% 29.27 in 6.2 mi WSW 16.1 mph - N/A   Partly Cloudy
5:20 AM 46.4 °F 40.1 °F 41.0 °F 81% 29.27 in 6.2 mi WSW 15.0 mph - N/A   Partly Cloudy
5:50 AM 46.4 °F 40.1 °F 41.0 °F 81% 29.27 in - WSW 15.0 mph - N/A   Clear
6:20 AM 46.4 °F 40.4 °F 41.0 °F 81% 29.27 in - WSW 13.8 mph - N/A   Clear
6:50 AM 46.4 °F 40.1 °F 42.8 °F 87% 29.27 in 6.2 mi WSW 15.0 mph - N/A   Unknown
7:20 AM 46.4 °F 39.8 °F 42.8 °F 87% 29.27 in 6.2 mi WSW 16.1 mph - N/A   Partly Cloudy
7:50 AM 48.2 °F - 42.8 °F 82% 29.30 in 6.2 mi WSW 17.3 mph - N/A   Partly Cloudy
8:20 AM 48.2 °F - 42.8 °F 82% 29.30 in 6.2 mi WSW 16.1 mph - N/A   Partly Cloudy
8:50 AM 50.0 °F - 42.8 °F 76% 29.30 in 6.2 mi WSW 15.0 mph - N/A   Scattered Clouds
9:20 AM 50.0 °F - 42.8 °F 76% 29.30 in 6.2 mi WSW 15.0 mph - N/A   Scattered Clouds
9:50 AM 50.0 °F - 42.8 °F 76% 29.30 in 6.2 mi WSW 16.1 mph - N/A   Scattered Clouds
10:20 AM 50.0 °F - 42.8 °F 76% 29.30 in 6.2 mi WSW 13.8 mph - N/A   Scattered Clouds
10:50 AM 51.8 °F - 44.6 °F 76% 29.30 in 6.2 mi WSW 13.8 mph - N/A   Scattered Clouds
11:20 AM 51.8 °F - 44.6 °F 76% 29.30 in 6.2 mi WSW 15.0 mph - N/A   Scattered Clouds
11:50 AM 51.8 °F - 44.6 °F 76% 29.30 in 6.2 mi West 13.8 mph - N/A   Scattered Clouds
12:20 PM 51.8 °F - 44.6 °F 76% 29.30 in 6.2 mi WSW 17.3 mph - N/A   Scattered Clouds
12:50 PM 51.8 °F - 44.6 °F 76% 29.30 in 6.2 mi WSW 16.1 mph - N/A   Scattered Clouds
1:20 PM 53.6 °F - 44.6 °F 72% 29.30 in 6.2 mi WSW 15.0 mph - N/A   Scattered Clouds
1:50 PM 53.6 °F - 44.6 °F 72% 29.30 in 6.2 mi West 15.0 mph - N/A   Scattered Clouds
2:20 PM 55.4 °F - 46.4 °F 72% 29.30 in 6.2 mi West 13.8 mph - N/A   Scattered Clouds
2:50 PM 55.4 °F - 44.6 °F 67% 29.30 in 6.2 mi West 15.0 mph - N/A   Scattered Clouds
3:20 PM 53.6 °F - 44.6 °F 72% 29.30 in 6.2 mi West 13.8 mph - N/A   Scattered Clouds
3:50 PM 55.4 °F - 44.6 °F 67% 29.30 in 6.2 mi West 15.0 mph - N/A   Scattered Clouds
4:20 PM 55.4 °F - 44.6 °F 67% 29.30 in 6.2 mi West 11.5 mph - N/A   Partly Cloudy
4:50 PM 55.4 °F - 44.6 °F 67% 29.30 in 6.2 mi West 15.0 mph - N/A   Scattered Clouds
5:20 PM 55.4 °F - 42.8 °F 63% 29.30 in 6.2 mi West 12.7 mph - N/A   Partly Cloudy
5:50 PM 55.4 °F - 42.8 °F 63% 29.30 in 6.2 mi West 12.7 mph - N/A   Partly Cloudy
6:20 PM 53.6 °F - 42.8 °F 67% 29.30 in 6.2 mi West 10.4 mph - N/A   Partly Cloudy
6:50 PM 51.8 °F - 42.8 °F 71% 29.30 in 6.2 mi West 9.2 mph - N/A   Partly Cloudy
7:20 PM 50.0 °F - 42.8 °F 76% 29.30 in 6.2 mi West 9.2 mph - N/A   Partly Cloudy
7:50 PM 50.0 °F - 42.8 °F 76% 29.33 in 6.2 mi West 9.2 mph - N/A   Partly Cloudy
8:20 PM 48.2 °F - 42.8 °F 82% 29.33 in 6.2 mi West 6.9 mph - N/A   Partly Cloudy
8:50 PM 44.6 °F 40.7 °F 41.0 °F 87% 29.33 in - WSW 6.9 mph - N/A   Clear
9:20 PM 42.8 °F 37.5 °F 41.0 °F 93% 29.36 in - WSW 9.2 mph - N/A   Clear
9:50 PM 42.8 °F 38.6 °F 41.0 °F 93% 29.36 in - WSW 6.9 mph - N/A   Clear
10:20 PM 44.6 °F 40.7 °F 41.0 °F 87% 29.36 in - WSW 6.9 mph - N/A   Clear
10:50 PM 42.8 °F 38.6 °F 41.0 °F 93% 29.36 in - WSW 6.9 mph - N/A   Clear
11:20 PM 42.8 °F 38.6 °F 41.0 °F 93% 29.39 in - SW 6.9 mph - N/A   Clear
11:50 PM 41.0 °F 35.8 °F 39.2 °F 93% 29.39 in - WSW 8.1 mph - N/A   Clear